CySat-1
1 61501U 98067WZ  24286.63328800  .00138779  00000-0  22591-2 0  9991
2 61501  51.6374  93.6304 0009097  86.8201 322.1723 15.51630141   698
DORA
1 61502U 98067XA  24286.57952736  .00146771  00000-0  23512-2 0  9991
2 61502  51.6371  93.8927 0006677  73.5637  37.4103 15.52064202   672
